Temp
-28 -28 -27 -27 -27 -27 -27 -27 -28 -28 -29 -29 -30 -30 -29 -29 -28 -27 -27 -27 -26 -26 -26 -25 -25 -25 -25 -25 -25 -25 -25 -25 -25 -24 -24 -24 -23 -23 -23 -23 -22 -22 -22 -21 -21 -20 -21 -21 -21 -21 -20 -20 -20 -20
-28 -28 -28 -27 -27 -27 -27 -27 -27 -27 -28 -28 -28 -29 -28 -28 -28 -27 -27 -26 -26 -26 -26 -25 -25 -25 -25 -25 -25 -25 -24 -24 -24 -24 -23 -24 -23 -23 -23 -23 -22 -22 -22 -22 -21 -21 -21 -21 -21 -20 -20 -20 -20 -20
-28 -28 -28 -28 -27 -27 -27 -27 -27 -27 -27 -27 -27 -27 -27 -27 -27 -26 -27 -27 -26 -25 -25 -25 -25 -25 -24 -24 -24 -25 -24 -24 -24 -24 -24 -24 -23 -23 -23 -22 -22 -22 -21 -21 -21 -21 -21 -21 -20 -20 -20 -20 -20 -20
-28 -28 -28 -28 -27 -27 -27 -26 -26 -27 -27 -27 -26 -27 -27 -27 -27 -26 -26 -26 -26 -25 -25 -25 -25 -24 -24 -24 -24 -24 -24 -24 -24 -24 -24 -23 -23 -23 -22 -22 -22 -21 -21 -21 -21 -21 -21 -21 -21 -20 -20 -20 -20 -20
-28 -28 -28 -28 -28 -28 -27 -27 -27 -27 -26 -27 -27 -27 -26 -26 -27 -27 -26 -26 -26 -26 -25 -24 -24 -24 -24 -24 -24 -24 -24 -24 -24 -23 -23 -23 -23 -22 -22 -22 -22 -21 -21 -21 -21 -21 -21 -21 -21 -21 -21 -21 -21 -21
-28 -28 -28 -28 -28 -28 -28 -27 -27 -27 -27 -27 -27 -27 -27 -27 -27 -26 -26 -26 -26 -26 -25 -25 -25 -24 -24 -24 -24 -24 -24 -24 -24 -23 -23 -22 -23 -22 -22 -21 -21 -21 -21 -21 -21 -21 -21 -21 -21 -21 -21 -21 -21 -21
-28 -28 -28 -28 -28 -28 -28 -28 -27 -27 -27 -27 -27 -27 -27 -26 -26 -26 -25 -26 -26 -26 -26 -25 -25 -24 -24 -24 -25 -25 -24 -24 -24 -23 -23 -23 -23 -22 -21 -21 -22 -22 -22 -22 -21 -21 -21 -21 -21 -21 -22 -22 -21 -21
-28 -28 -28 -28 -28 -28 -28 -28 -28 -28 -27 -27 -27 -27 -27 -27 -27 -27 -27 -26 -26 -26 -26 -25 -25 -25 -25 -25 -25 -25 -24 -24 -24 -24 -24 -24 -23 -23 -21 -22 -23 -23 -22 -22 -22 -22 -22 -22 -22 -22 -22 -22 -23 -23
-28 -28 -28 -28 -28 -28 -29 -28 -28 -28 -28 -28 -28 -28 -28 -27 -27 -28 -27 -27 -27 -27 -26 -26 -26 -26 -25 -25 -25 -25 -25 -24 -25 -24 -25 -25 -24 -23 -23 -23 -23 -23 -23 -22 -22 -22 -23 -23 -24 -24 -23 -23 -23 -23
-28 -28 -28 -28 -28 -29 -29 -29 -29 -29 -28 -28 -28 -28 -28 -28 -28 -27 -28 -27 -28 -27 -27 -27 -27 -27 -26 -26 -26 -26 -25 -25 -25 -25 -25 -25 -24 -25 -24 -23 -23 -23 -23 -23 -23 -23 -24 -24 -24 -23 -24 -23 -23 -24
-28 -28 -28 -28 -29 -29 -29 -29 -29 -29 -29 -28 -28 -28 -29 -28 -28 -28 -28 -28 -28 -27 -27 -27 -27 -26 -26 -27 -26 -26 -26 -26 -26 -25 -25 -25 -25 -25 -25 -24 -24 -24 -24 -24 -24 -24 -24 -23 -23 -23 -23 -23 -23 -23
-28 -28 -28 -28 -28 -28 -28 -29 -29 -28 -28 -28 -28 -28 -28 -28 -28 -28 -28 -28 -27 -27 -27 -27 -27 -26 -26 -26 -26 -26 -26 -26 -26 -26 -26 -25 -25 -25 -25 -24 -24 -24 -24 -24 -24 -24 -24 -23 -23 -23 -23 -23 -23 -23
-28 -27 -28 -28 -28 -28 -28 -28 -29 -29 -28 -28 -28 -28 -28 -28 -28 -28 -27 -27 -27 -27 -27 -27 -26 -26 -26 -26 -26 -26 -26 -26 -26 -26 -26 -25 -25 -25 -24 -24 -24 -24 -24 -24 -23 -23 -23 -23 -23 -23 -23 -23 -23 -23
-27 -27 -27 -27 -28 -28 -28 -28 -28 -28 -28 -28 -28 -28 -28 -28 -27 -27 -27 -27 -27 -27 -27 -27 -26 -26 -26 -26 -26 -26 -26 -25 -25 -25 -25 -25 -25 -25 -24 -24 -24 -24 -23 -23 -23 -23 -24 -23 -23 -23 -23 -23 -23 -23
-27 -27 -27 -27 -27 -27 -28 -28 -28 -28 -28 -28 -28 -27 -27 -27 -27 -27 -27 -26 -26 -26 -26 -26 -26 -25 -26 -26 -26 -26 -25 -25 -25 -25 -25 -25 -25 -25 -24 -24 -24 -23 -23 -23 -23 -23 -23 -23 -23 -23 -23 -23 -23 -23
-27 -27 -27 -27 -27 -27 -27 -27 -27 -27 -27 -27 -27 -27 -27 -26 -26 -26 -26 -26 -26 -26 -26 -26 -26 -26 -26 -25 -25 -25 -25 -25 -25 -25 -25 -25 -25 -24 -24 -24 -24 -24 -23 -23 -23 -23 -24 -24 -23 -23 -23 -24 -24 -24
-27 -27 -27 -27 -27 -27 -27 -27 -27 -27 -26 -26 -26 -26 -26 -26 -26 -26 -26 -26 -26 -26 -26 -26 -26 -26 -25 -25 -25 -25 -25 -25 -25 -25 -25 -25 -24 -24 -24 -24 -24 -24 -24 -24 -24 -23 -24 -24 -24 -24 -25 -25 -25 -25
-26 -26 -26 -26 -26 -26 -26 -26 -26 -26 -26 -26 -26 -26 -26 -26 -26 -26 -26 -26 -26 -25 -26 -26 -26 -25 -25 -25 -25 -25 -25 -25 -25 -25 -24 -24 -24 -24 -24 -24 -24 -24 -24 -24 -24 -24 -25 -25 -25 -25 -25 -25 -25 -25
-26 -26 -26 -26 -26 -26 -26 -26 -26 -26 -25 -25 -25 -25 -25 -25 -25 -25 -25 -25 -25 -25 -25 -25 -25 -25 -25 -25 -25 -25 -25 -25 -24 -24 -24 -24 -24 -24 -24 -25 -25 -25 -25 -25 -25 -25 -25 -25 -25 -25 -25 -25 -25 -25
-25 -26 -25 -25 -25 -26 -26 -25 -25 -25 -24 -24 -24 -24 -24 -24 -24 -25 -25 -25 -25 -25 -25 -25 -25 -25 -24 -24 -24 -24 -24 -24 -24 -24 -24 -24 -24 -25 -25 -25 -25 -25 -26 -26 -26 -26 -26 -26 -26 -26 -26 -26 -26 -26
-25 -25 -25 -25 -25 -25 -25 -24 -24 -24 -24 -23 -23 -22 -23 -23 -24 -24 -24 -24 -24 -24 -24 -24 -24 -24 -24 -24 -24 -24 -24 -24 -24 -24 -24 -25 -25 -25 -26 -26 -26 -26 -26 -26 -26 -26 -26 -26 -26 -26 -26 -26 -26 -26
-25 -25 -24 -24 -24 -24 -24 -24 -24 -23 -23 -23 -23 -22 -22 -22 -22 -23 -23 -23 -23 -23 -23 -24 -24 -24 -24 -24 -24 -24 -24 -25 -25 -25 -25 -26 -26 -26 -26 -27 -27 -27 -27 -27 -27 -27 -27 -27 -27 -27 -28 -29 -29 -30
-24 -24 -24 -24 -24 -24 -23 -23 -23 -23 -23 -23 -23 -23 -23 -23 -23 -24 -24 -24 -24 -24 -24 -24 -24 -24 -24 -25 -25 -25 -25 -25 -26 -26 -26 -26 -27 -27 -27 -27 -27 -28 -28 -28 -28 -28 -28 -29 -29 -30 -31 -31 -31 -32
-23 -23 -23 -23 -23 -23 -23 -23 -23 -23 -23 -23 -24 -23 -23 -23 -23 -23 -24 -24 -24 -24 -24 -24 -24 -25 -25 -25 -26 -26 -26 -27 -27 -27 -27 -28 -28 -28 -28 -29 -29 -29 -29 -29 -29 -30 -30 -30 -31 -31 -32 -32 -32 -33
-22 -22 -22 -23 -23 -23 -23 -23 -23 -23 -23 -24 -24 -24 -24 -24 -24 -24 -24 -25 -25 -25 -25 -25 -26 -26 -26 -27 -27 -27 -28 -28 -28 -28 -28 -29 -29 -29 -29 -29 -30 -30 -30 -30 -31 -31 -31 -32 -32 -32 -33 -34 -35 -35
-22 -22 -22 -22 -23 -23 -23 -23 -23 -24 -24 -24 -24 -24 -24 -25 -25 -25 -25 -26 -26 -26 -26 -27 -27 -27 -27 -28 -28 -28 -28 -28 -29 -29 -29 -29 -30 -30 -30 -31 -31 -31 -31 -32 -32 -33 -33 -33 -34 -35 -35 -36 -35 -35
-22 -22 -23 -23 -23 -23 -23 -23 -24 -24 -24 -24 -25 -25 -25 -25 -26 -26 -26 -27 -27 -27 -27 -27 -28 -28 -28 -28 -28 -29 -29 -29 -29 -30 -30 -30 -31 -31 -31 -31 -32 -33 -33 -34 -34 -34 -34 -35 -35 -35 -35 -35 -35 -35
-23 -22 -23 -23 -23 -23 -24 -24 -24 -24 -25 -25 -25 -26 -26 -26 -26 -27 -27 -27 -27 -27 -28 -28 -28 -29 -29 -29 -29 -29 -30 -30 -30 -31 -31 -31 -31 -32 -32 -33 -33 -34 -34 -34 -34 -34 -35 -35 -35 -35 -35 -35 -35 -35
-23 -23 -23 -23 -24 -24 -24 -24 -25 -25 -25 -25 -26 -26 -26 -26 -27 -27 -27 -28 -28 -28 -28 -29 -29 -29 -29 -29 -30 -30 -30 -31 -31 -31 -32 -32 -33 -33 -34 -34 -34 -35 -35 -35 -35 -35 -35 -35 -35 -35 -35 -35 -35 -34
-23 -24 -24 -24 -24 -25 -25 -25 -25 -25 -26 -26 -26 -26 -27 -27 -27 -28 -28 -28 -28 -29 -29 -29 -29 -29 -30 -30 -30 -30 -31 -31 -32 -32 -33 -33 -34 -34 -34 -34 -35 -35 -36 -35 -35 -35 -35 -35 -35 -35 -35 -35 -35 -34
-24 -24 -24 -24 -25 -25 -25 -25 -25 -26 -26 -26 -27 -27 -27 -28 -28 -28 -28 -29 -29 -29 -29 -30 -30 -30 -30 -30 -31 -31 -32 -32 -33 -33 -34 -34 -35 -35 -35 -35 -36 -36 -36 -36 -36 -35 -35 -35 -35 -35 -35 -35 -35 -35
-24 -24 -24 -25 -25 -25 -26 -26 -26 -26 -27 -27 -27 -28 -28 -28 -28 -29 -29 -29 -29 -30 -30 -30 -30 -30 -31 -31 -31 -32 -32 -33 -34 -35 -35 -35 -35 -36 -36 -36 -37 -37 -36 -36 -36 -36 -36 -35 -35 -35 -35 -35 -35 -35
-25 -25 -25 -26 -26 -26 -26 -26 -27 -27 -27 -27 -28 -28 -28 -28 -29 -29 -29 -30 -30 -30 -30 -31 -31 -31 -31 -32 -32 -33 -34 -35 -35 -36 -36 -36 -36 -37 -37 -37 -37 -37 -36 -36 -36 -36 -36 -36 -36 -36 -36 -36 -36 -36
Height
5361 5360 5360 5359 5359 5358 5358 5359 5360 5362 5365 5368 5373 5379 5387 5394 5402 5409 5421 5427 5436 5446 5454 5461 5469 5476 5481 5485 5489 5495 5498 5502 5508 5513 5517 5521 5525 5529 5533 5538 5543 5549 5554 5558 5561 5563 5567 5569 5574 5580 5582 5583 5585 5586
5355 5354 5353 5353 5352 5352 5352 5353 5354 5357 5360 5364 5369 5376 5382 5389 5397 5405 5415 5423 5430 5438 5449 5455 5463 5470 5475 5479 5484 5489 5494 5500 5504 5509 5513 5517 5522 5525 5530 5534 5539 5545 5550 5554 5558 5560 5560 5563 5567 5572 5574 5576 5577 5578
5351 5350 5349 5348 5347 5347 5347 5349 5350 5353 5357 5361 5366 5372 5379 5386 5393 5401 5413 5418 5424 5435 5444 5451 5459 5463 5468 5473 5479 5485 5490 5496 5500 5504 5508 5512 5516 5521 5525 5530 5535 5539 5544 5548 5551 5553 5554 5556 5560 5562 5564 5566 5567 5569
5347 5345 5343 5343 5342 5343 5344 5346 5348 5351 5355 5360 5365 5370 5377 5384 5391 5400 5408 5416 5422 5432 5440 5448 5453 5460 5465 5469 5475 5480 5485 5491 5495 5500 5503 5507 5512 5517 5521 5525 5529 5533 5537 5541 5544 5545 5547 5549 5552 5554 5554 5556 5556 5557
5342 5339 5338 5336 5336 5337 5339 5342 5345 5349 5353 5358 5363 5369 5375 5381 5388 5396 5406 5414 5422 5431 5437 5443 5449 5456 5461 5466 5471 5475 5481 5486 5490 5495 5498 5503 5506 5511 5515 5519 5524 5527 5531 5534 5536 5538 5539 5541 5543 5545 5545 5546 5546 5546
5339 5336 5334 5331 5329 5330 5332 5336 5341 5346 5351 5357 5362 5369 5375 5382 5387 5394 5401 5409 5419 5427 5434 5440 5447 5452 5458 5462 5467 5472 5476 5481 5485 5488 5492 5497 5502 5505 5510 5515 5518 5522 5524 5527 5529 5531 5532 5533 5534 5534 5534 5534 5534 5534
5338 5335 5330 5327 5325 5324 5325 5329 5334 5341 5348 5355 5362 5368 5375 5381 5389 5396 5403 5413 5418 5425 5430 5436 5441 5447 5453 5459 5463 5467 5471 5476 5480 5483 5487 5491 5496 5498 5503 5508 5511 5513 5515 5518 5521 5521 5521 5523 5522 5522 5521 5521 5521 5521
5337 5333 5327 5321 5319 5320 5321 5324 5329 5335 5344 5352 5360 5368 5375 5382 5389 5396 5403 5408 5415 5421 5426 5432 5439 5444 5448 5453 5457 5461 5465 5470 5475 5479 5483 5487 5490 5492 5495 5500 5503 5505 5506 5508 5509 5509 5510 5510 5511 5509 5508 5507 5507 5506
5338 5334 5328 5321 5318 5316 5318 5321 5327 5334 5342 5351 5359 5367 5374 5382 5390 5395 5403 5409 5414 5421 5425 5430 5436 5440 5444 5447 5451 5455 5459 5463 5468 5472 5476 5481 5483 5486 5490 5493 5495 5496 5498 5499 5499 5499 5499 5500 5500 5499 5498 5498 5496 5496
5342 5336 5331 5325 5320 5316 5317 5321 5327 5334 5342 5352 5361 5368 5377 5383 5390 5394 5403 5408 5413 5416 5421 5428 5432 5436 5441 5444 5448 5452 5455 5457 5461 5465 5468 5473 5477 5481 5484 5487 5489 5490 5491 5491 5491 5490 5490 5491 5491 5490 5490 5489 5488 5488
5346 5341 5337 5332 5326 5320 5320 5325 5332 5339 5346 5355 5363 5372 5379 5384 5391 5397 5402 5407 5411 5415 5420 5425 5429 5432 5437 5442 5445 5447 5450 5454 5457 5461 5464 5466 5471 5476 5479 5482 5483 5484 5484 5484 5483 5483 5482 5482 5481 5481 5481 5481 5480 5479
5351 5348 5344 5341 5337 5333 5333 5336 5341 5347 5355 5364 5371 5377 5382 5387 5393 5398 5402 5406 5410 5414 5418 5422 5426 5431 5435 5438 5441 5444 5446 5449 5452 5455 5458 5460 5469 5472 5474 5476 5476 5478 5478 5477 5476 5475 5474 5472 5471 5471 5471 5472 5471 5471
5357 5356 5354 5351 5350 5349 5349 5352 5354 5361 5367 5371 5377 5382 5387 5391 5394 5398 5402 5406 5410 5414 5418 5423 5427 5431 5433 5437 5440 5442 5445 5447 5449 5450 5452 5459 5465 5467 5469 5469 5470 5471 5470 5469 5468 5468 5467 5465 5463 5463 5463 5463 5462 5461
5364 5364 5364 5363 5362 5361 5362 5364 5368 5372 5377 5381 5385 5388 5392 5395 5399 5402 5405 5408 5412 5415 5419 5423 5427 5431 5433 5437 5438 5440 5444 5446 5447 5449 5452 5457 5460 5462 5463 5463 5463 5463 5463 5463 5462 5462 5460 5459 5458 5457 5456 5455 5454 5452
5370 5371 5372 5372 5373 5373 5374 5375 5377 5382 5384 5388 5391 5394 5397 5399 5402 5404 5407 5411 5414 5418 5421 5425 5428 5431 5433 5436 5439 5441 5443 5443 5445 5448 5451 5454 5455 5456 5456 5456 5456 5456 5456 5456 5455 5454 5453 5453 5451 5449 5448 5446 5444 5442
5375 5376 5377 5378 5380 5381 5383 5384 5386 5389 5391 5393 5396 5398 5400 5403 5406 5408 5411 5414 5417 5420 5423 5426 5428 5431 5433 5435 5437 5440 5442 5444 5446 5446 5447 5448 5449 5450 5450 5450 5450 5450 5450 5450 5449 5448 5446 5444 5442 5440 5438 5436 5434 5433
5379 5380 5381 5383 5384 5386 5388 5390 5391 5393 5396 5397 5399 5401 5403 5406 5408 5411 5414 5416 5419 5422 5424 5426 5429 5431 5433 5435 5438 5439 5441 5441 5442 5442 5443 5443 5444 5444 5444 5444 5444 5444 5444 5443 5442 5441 5439 5437 5434 5433 5431 5430 5428 5426
5382 5383 5385 5387 5389 5390 5392 5393 5395 5396 5397 5399 5400 5403 5405 5407 5409 5412 5414 5417 5419 5421 5424 5425 5428 5431 5433 5436 5437 5438 5438 5439 5440 5440 5440 5441 5440 5440 5439 5439 5439 5438 5437 5436 5435 5433 5431 5429 5427 5425 5423 5421 5419 5416
5384 5386 5389 5391 5393 5394 5395 5396 5396 5396 5398 5399 5401 5403 5405 5407 5410 5412 5415 5418 5421 5423 5426 5427 5429 5431 5433 5434 5435 5435 5436 5437 5437 5436 5436 5435 5434 5433 5433 5433 5433 5432 5431 5430 5428 5426 5424 5421 5419 5416 5413 5411 5408 5405
5386 5389 5392 5394 5396 5397 5398 5398 5399 5400 5400 5402 5403 5404 5407 5409 5411 5414 5417 5419 5421 5424 5425 5427 5429 5430 5431 5432 5433 5433 5433 5433 5433 5433 5433 5433 5432 5432 5431 5430 5429 5427 5425 5423 5421 5418 5415 5412 5408 5404 5401 5397 5393 5388
5389 5392 5395 5397 5399 5400 5401 5402 5404 5404 5404 5404 5404 5405 5407 5409 5412 5415 5417 5419 5422 5423 5425 5427 5429 5430 5431 5432 5432 5432 5433 5433 5433 5433 5432 5431 5430 5429 5428 5426 5424 5421 5418 5415 5411 5407 5403 5398 5394 5389 5384 5379 5374 5369
5391 5394 5398 5401 5403 5405 5406 5408 5410 5411 5412 5412 5413 5414 5415 5416 5417 5419 5422 5424 5426 5428 5429 5430 5431 5433 5433 5433 5433 5433 5432 5432 5431 5430 5428 5427 5425 5422 5420 5417 5414 5410 5407 5402 5397 5392 5387 5381 5375 5369 5364 5358 5354 5350
5393 5397 5401 5405 5408 5410 5413 5414 5416 5417 5418 5418 5421 5422 5421 5422 5424 5425 5425 5428 5431 5432 5432 5433 5433 5433 5433 5432 5431 5430 5429 5428 5426 5424 5422 5420 5417 5414 5411 5407 5403 5398 5392 5386 5379 5372 5366 5359 5354 5348 5344 5340 5337 5334
5398 5402 5406 5410 5413 5416 5418 5419 5421 5422 5423 5424 5425 5426 5427 5428 5428 5428 5430 5432 5433 5433 5433 5433 5432 5431 5431 5429 5428 5427 5425 5423 5420 5417 5414 5411 5408 5403 5398 5393 5387 5381 5374 5367 5361 5354 5348 5342 5337 5333 5329 5325 5322 5320
5406 5409 5412 5414 5417 5419 5421 5423 5425 5426 5427 5427 5429 5430 5430 5431 5431 5431 5432 5433 5433 5432 5431 5430 5429 5428 5427 5425 5423 5420 5417 5414 5411 5408 5404 5400 5395 5389 5384 5378 5371 5364 5358 5351 5344 5338 5332 5327 5322 5318 5314 5312 5310 5309
5409 5412 5416 5418 5421 5424 5425 5427 5428 5429 5429 5430 5431 5431 5431 5432 5432 5432 5432 5431 5430 5429 5428 5426 5424 5422 5420 5418 5415 5412 5409 5406 5402 5397 5393 5387 5382 5376 5369 5362 5355 5348 5342 5335 5330 5324 5320 5315 5311 5308 5306 5305 5303 5303
5414 5417 5420 5423 5425 5427 5428 5429 5430 5430 5431 5431 5431 5431 5431 5431 5431 5430 5429 5428 5426 5425 5423 5421 5419 5417 5414 5411 5408 5404 5400 5395 5391 5386 5380 5374 5367 5360 5354 5347 5340 5334 5328 5323 5319 5315 5312 5309 5306 5304 5302 5301 5300 5299
5419 5421 5423 5425 5427 5428 5430 5430 5431 5431 5431 5431 5431 5431 5431 5430 5429 5428 5426 5424 5422 5420 5418 5416 5413 5410 5407 5403 5399 5394 5389 5384 5379 5372 5366 5359 5352 5346 5339 5333 5327 5322 5318 5315 5312 5309 5307 5305 5303 5302 5300 5299 5297 5295
5422 5424 5426 5426 5428 5429 5429 5430 5431 5431 5431 5430 5430 5429 5428 5427 5425 5423 5421 5419 5417 5414 5412 5409 5406 5402 5398 5394 5389 5383 5378 5372 5365 5358 5351 5345 5338 5332 5326 5321 5317 5313 5311 5309 5307 5305 5303 5302 5300 5298 5296 5294 5292 5289
5423 5424 5426 5427 5428 5428 5429 5430 5429 5429 5428 5428 5427 5425 5424 5422 5420 5418 5416 5413 5411 5408 5405 5402 5398 5393 5388 5383 5377 5371 5364 5358 5351 5345 5338 5332 5327 5322 5317 5312 5308 5305 5303 5302 5301 5299 5298 5296 5294 5292 5290 5288 5285 5282
5423 5424 5425 5426 5427 5427 5427 5427 5427 5426 5426 5424 5423 5421 5419 5417 5415 5412 5410 5407 5404 5401 5397 5392 5387 5382 5376 5370 5364 5357 5351 5345 5338 5332 5326 5321 5317 5312 5308 5304 5300 5298 5297 5295 5294 5292 5291 5289 5287 5285 5282 5280 5277 5274
5422 5423 5424 5425 5425 5425 5425 5424 5423 5422 5421 5419 5418 5416 5413 5411 5409 5406 5403 5399 5395 5391 5386 5381 5376 5371 5364 5358 5351 5345 5338 5332 5326 5321 5316 5312 5307 5303 5299 5296 5294 5292 5290 5288 5286 5284 5283 5281 5279 5276 5274 5271 5268 5265
5420 5421 5422 5421 5421 5421 5420 5420 5418 5417 5415 5413 5411 5409 5407 5404 5401 5398 5394 5390 5387 5382 5377 5371 5365 5358 5352 5346 5339 5333 5327 5322 5316 5312 5307 5303 5300 5296 5294 5291 5289 5286 5284 5282 5280 5277 5275 5273 5270 5268 5265 5262 5259 5255
Wind_Speed
23 22 22 22 23 22 22 20 19 19 19 21 24 27 30 33 35 35 31 32 30 25 32 34 32 28 24 22 19 17 16 21 26 24 25 25 23 24 25 23 25 24 21 19 17 17 16 17 19 21 19 18 18 18
15 15 15 17 18 18 18 18 16 15 17 20 22 24 27 30 31 32 31 28 27 32 34 34 33 22 22 24 23 20 17 20 27 26 26 24 23 23 23 25 24 24 20 18 19 19 23 23 22 21 21 21 23 24
9 10 11 11 12 13 15 13 15 15 16 18 20 24 27 29 31 29 26 27 31 31 34 35 25 17 18 19 21 23 21 22 24 28 28 27 26 25 24 22 22 23 23 21 21 23 24 26 25 26 28 29 29 28
15 15 15 16 16 13 11 13 14 15 16 18 21 23 26 27 28 26 27 31 31 28 30 25 18 18 18 19 18 19 22 22 24 28 28 27 25 26 25 23 22 22 22 23 24 26 27 28 29 30 33 34 36 36
15 14 13 13 14 14 17 16 15 16 16 18 19 19 23 24 25 27 29 32 28 23 26 22 20 20 21 21 21 21 19 19 22 26 28 27 26 26 26 25 24 24 24 25 26 27 29 31 33 35 37 39 40 41
8 8 7 9 11 15 15 20 23 20 19 19 19 21 24 24 24 24 28 30 27 24 26 25 23 25 25 22 20 20 22 22 22 24 26 27 27 28 28 26 27 26 28 28 30 32 35 37 39 40 42 44 45 45
7 9 10 7 6 8 16 17 22 26 24 23 23 23 23 26 29 30 29 24 27 30 31 29 28 26 26 25 24 26 25 24 25 24 23 23 24 27 27 26 26 28 28 30 31 33 37 39 40 42 44 46 47 48
11 12 12 6 2 7 10 17 20 25 29 28 27 28 27 26 26 24 24 25 27 29 29 27 26 24 24 23 21 22 24 23 22 22 22 22 25 26 27 25 22 25 27 31 32 37 40 42 43 45 47 46 44 42
11 15 19 15 12 6 14 18 22 25 30 31 29 28 27 28 24 20 24 24 21 22 23 20 17 20 20 19 18 19 22 23 24 26 23 23 22 26 22 21 23 25 27 31 36 40 42 42 39 36 36 37 36 32
18 13 27 21 15 9 12 20 24 28 30 33 35 34 28 30 35 24 23 23 18 16 19 15 17 17 16 16 17 16 15 21 31 32 32 28 24 25 18 16 18 21 25 29 33 35 35 34 34 35 31 30 31 28
13 18 23 23 27 24 22 25 26 28 33 35 38 36 28 32 35 27 23 26 27 24 18 18 20 19 17 15 15 17 15 20 23 24 33 38 33 27 27 27 24 23 25 24 25 27 29 31 34 31 31 31 29 29
17 18 23 25 31 34 32 30 32 32 33 31 31 32 29 31 30 30 20 20 20 22 20 19 18 19 15 19 13 13 14 17 20 22 27 35 29 22 21 21 21 22 18 18 21 22 25 28 26 25 25 27 29 35
19 25 28 27 32 35 35 38 42 37 37 36 38 34 32 28 28 21 16 14 17 20 19 20 21 18 18 21 17 13 13 12 12 18 24 25 20 17 12 16 16 21 21 19 19 22 23 24 24 21 23 25 30 29
21 25 27 29 33 37 37 36 33 28 27 27 29 25 22 21 18 16 18 17 21 23 22 20 22 16 20 23 12 26 12 12 12 14 17 15 15 20 16 16 18 18 21 21 22 19 18 22 24 25 27 29 31 34
17 17 24 25 27 27 29 29 28 23 24 23 20 20 20 21 21 20 20 22 23 23 22 20 18 21 20 12 15 17 15 18 16 16 16 17 17 20 20 19 20 21 21 20 17 19 23 26 27 30 30 32 34 35
19 17 17 20 17 14 17 23 24 21 18 18 20 19 20 22 22 21 21 19 17 17 14 17 18 18 17 17 18 19 19 16 12 15 17 20 21 21 21 22 20 18 18 20 23 25 28 30 28 26 25 24 22 22
17 16 14 15 16 14 12 11 13 15 16 16 15 16 15 15 14 13 14 15 16 15 14 14 14 12 13 15 14 13 12 14 13 16 18 18 17 19 19 20 22 24 22 19 20 24 26 25 22 21 22 24 25 27
13 13 13 11 12 13 12 9 10 10 11 12 13 14 15 15 14 14 13 13 13 14 13 12 14 12 12 12 9 9 10 10 10 9 7 12 15 16 18 19 20 19 19 21 23 24 24 24 26 27 29 31 33 35
13 12 11 11 11 11 9 8 9 10 12 13 13 13 13 15 16 17 16 15 13 12 12 9 9 10 9 10 10 8 12 12 11 10 10 12 15 16 17 18 18 19 21 21 23 25 27 29 32 34 36 39 41 43
15 14 12 11 10 8 8 9 14 14 12 10 11 12 13 15 15 15 14 14 13 10 8 7 7 7 6 6 6 7 10 10 7 3 4 5 6 7 9 13 16 19 22 25 28 31 34 37 40 43 45 47 48 50
16 15 13 12 11 10 11 14 17 15 20 26 24 22 19 20 17 15 12 11 9 8 7 6 6 6 5 6 5 6 5 2 4 6 8 10 12 15 17 20 24 27 30 33 36 39 42 45 47 49 51 52 54 55
17 17 17 17 18 18 17 19 19 23 25 25 26 27 29 29 28 25 21 17 14 13 12 11 10 9 6 4 1 2 4 7 9 12 15 18 20 23 26 29 32 35 38 40 43 46 48 50 51 52 52 52 52 51
25 26 25 24 24 24 23 24 20 19 17 21 17 15 17 22 24 24 23 19 13 12 10 7 5 4 3 5 7 9 12 14 16 19 21 24 26 29 31 34 37 40 43 47 49 50 50 50 50 49 48 46 44 42
34 33 30 28 28 26 27 21 19 17 15 17 15 14 15 15 15 17 13 9 6 5 5 5 6 7 9 10 12 14 16 18 20 22 24 26 29 32 36 39 43 48 51 51 50 49 48 48 47 46 44 42 39 35
34 31 29 27 26 22 18 16 15 14 14 16 13 12 11 10 10 8 6 4 4 5 6 7 7 8 9 12 14 17 19 21 23 26 29 32 36 39 43 47 50 51 50 49 48 46 44 43 41 38 33 29 25 22
31 29 26 25 24 18 13 10 9 13 12 11 9 7 7 6 6 6 6 6 8 10 11 11 12 14 16 18 20 22 24 27 29 32 35 39 43 46 49 50 50 49 47 44 40 37 35 30 24 19 16 15 15 15
29 26 23 20 15 11 8 7 9 9 7 5 5 5 5 6 7 8 10 13 14 15 16 16 18 20 21 23 26 29 30 32 35 39 43 46 48 49 49 49 46 42 38 34 30 26 21 17 14 13 11 10 9 10
21 18 16 13 11 11 10 7 6 4 2 2 3 6 8 10 12 14 17 18 19 19 20 21 23 25 28 30 32 34 36 39 43 46 48 48 48 48 46 42 38 34 29 26 22 17 13 10 8 8 9 11 14 17
14 11 10 10 9 7 5 3 1 1 2 5 7 11 13 16 18 20 21 21 22 23 24 26 28 32 34 35 36 38 42 46 47 47 48 48 45 41 37 34 31 28 23 18 15 13 13 13 14 15 17 19 21 23
14 12 9 7 5 3 1 2 4 6 9 11 14 16 18 20 23 26 25 25 26 27 29 32 35 36 38 39 43 47 48 48 48 47 45 41 36 33 32 30 27 24 21 21 21 20 19 19 20 21 23 24 25 26
10 7 6 4 4 5 6 8 11 13 14 16 18 20 21 24 28 29 28 29 30 31 34 37 40 41 43 47 48 48 48 48 46 42 37 34 33 32 30 26 23 21 20 20 21 22 22 23 24 26 27 27 29 29
10 9 8 8 9 10 12 14 15 17 20 21 22 23 25 30 32 31 32 32 34 37 40 43 44 47 49 48 49 49 47 43 39 36 34 33 32 29 25 22 20 20 20 21 21 22 24 25 26 28 29 29 30 31
11 11 11 12 14 16 18 19 20 21 23 24 25 28 34 35 33 34 34 36 39 42 44 46 48 48 48 49 47 44 41 39 37 35 32 28 25 22 21 20 20 20 20 21 21 22 24 25 26 27 27 28 30 31
Wind_Direction
275 275 275 274 273 271 270 265 256 243 232 224 215 209 207 208 211 213 212 214 220 218 189 188 192 201 209 215 214 201 199 195 195 205 209 213 216 212 209 208 213 213 212 210 204 202 210 217 222 226 229 235 247 256
278 279 281 279 274 269 261 254 246 231 220 212 207 203 205 206 208 210 205 212 216 190 180 188 195 207 209 213 210 196 188 188 195 203 210 215 213 211 208 210 212 212 214 219 218 223 236 236 239 237 246 252 260 267
285 290 290 292 287 270 253 243 230 220 209 202 199 200 203 204 203 207 202 211 197 187 182 197 200 211 207 210 216 211 201 190 193 206 218 221 217 213 214 213 215 216 221 224 230 235 246 251 251 259 265 269 272 274
295 291 283 275 266 262 249 229 218 211 205 199 197 197 200 204 209 208 204 194 192 191 195 199 202 206 220 221 223 223 212 209 204 207 219 227 223 219 222 223 223 229 230 235 240 248 253 259 261 264 268 272 275 276
302 294 292 280 266 251 236 226 210 199 194 188 188 194 197 198 201 195 186 190 195 197 204 207 213 212 217 223 218 215 213 212 211 214 221 227 232 230 227 228 229 235 241 245 248 251 257 261 263 265 268 271 274 276
340 325 305 297 267 241 231 219 213 201 194 186 181 184 187 184 189 187 190 197 198 204 219 224 225 222 216 216 216 210 209 205 214 216 225 227 228 234 237 237 238 241 246 249 251 255 258 261 265 268 271 272 273 274
5 356 330 306 276 245 220 208 198 199 191 187 181 176 177 185 193 200 206 209 216 220 223 223 219 217 214 210 212 213 214 212 215 223 227 232 236 240 243 247 251 255 256 258 262 264 265 266 268 270 274 277 277 276
38 10 354 308 258 227 199 196 190 184 185 182 177 174 173 171 171 178 179 191 198 206 214 221 222 227 228 226 224 221 222 223 221 220 221 226 235 244 249 255 263 263 265 265 266 267 269 272 275 276 278 277 277 274
36 26 36 44 48 168 182 174 176 176 173 170 168 164 171 174 169 176 174 173 180 194 202 208 208 212 215 215 219 220 217 217 216 218 213 224 232 243 251 250 250 253 256 258 258 260 262 266 271 275 277 273 275 268
46 49 55 58 54 69 136 164 160 164 166 165 160 156 172 171 172 181 180 179 184 208 205 187 193 195 192 198 204 209 218 214 204 214 213 221 233 231 236 236 229 240 250 255 263 262 261 260 274 275 271 280 278 277
57 32 51 70 57 88 106 132 141 149 154 155 152 162 163 164 173 170 181 186 198 211 217 206 201 197 187 184 211 213 216 209 215 218 222 223 230 232 243 241 248 252 259 261 263 261 265 269 265 266 263 275 276 270
81 69 67 77 83 89 99 113 126 131 139 140 143 145 142 153 169 181 187 192 199 199 198 196 187 182 189 194 195 200 216 224 233 234 229 221 220 231 241 250 254 254 269 272 265 263 276 275 269 265 263 266 273 267
75 76 82 84 96 94 99 114 116 117 123 131 138 138 153 161 170 178 199 186 179 181 184 181 173 178 189 186 190 201 206 212 226 222 218 202 213 216 235 244 253 250 268 273 265 268 278 285 261 257 259 261 267 272
96 88 90 94 101 103 106 112 118 127 139 142 149 161 168 176 175 161 152 155 162 168 171 174 180 188 176 186 195 206 190 214 232 201 196 208 231 237 254 256 255 258 262 258 257 261 277 275 267 265 268 271 273 275
118 103 95 103 106 101 99 103 101 105 116 121 138 153 135 137 146 149 151 153 154 157 161 163 172 185 214 220 209 203 223 231 218 214 220 236 237 247 252 257 258 257 254 250 257 264 272 277 280 269 267 275 280 275
129 120 114 114 119 109 99 101 112 123 123 125 130 137 139 136 135 142 152 156 154 159 161 172 183 192 200 204 206 211 221 227 242 233 226 230 238 248 254 256 252 248 255 259 268 274 279 282 285 281 278 279 277 274
143 138 129 123 126 129 127 115 113 127 130 136 139 144 149 155 155 148 153 163 168 174 176 181 186 191 194 201 207 213 208 209 222 232 237 238 245 248 249 247 246 251 258 265 275 279 281 285 280 278 277 278 277 276
159 151 147 138 135 131 131 129 137 146 154 155 159 159 161 162 166 171 173 175 175 168 166 171 179 183 178 180 199 223 202 201 218 213 222 237 239 248 253 254 257 263 265 266 269 273 275 273 273 274 275 276 277 280
159 165 155 139 134 132 121 96 109 118 130 136 142 145 148 152 147 146 151 153 157 157 149 144 148 171 186 217 230 217 208 218 223 242 246 257 267 264 263 259 262 267 266 265 268 270 273 277 279 283 285 286 287 287
162 159 152 142 140 126 100 103 109 104 105 118 128 142 146 147 152 153 156 164 171 178 183 165 163 181 204 222 229 244 243 238 230 217 219 225 236 241 248 253 259 266 272 278 283 286 287 287 288 288 288 288 288 287
151 150 148 150 145 124 115 111 100 88 83 86 101 108 119 120 124 128 127 130 136 136 139 150 167 180 204 229 168 142 131 160 227 254 268 276 280 279 279 281 282 284 286 288 290 291 292 292 291 290 289 288 286 284
151 146 143 140 130 120 116 111 100 105 102 96 97 102 107 108 110 107 105 108 113 122 115 114 112 115 119 117 121 262 275 283 287 291 293 295 295 295 295 295 296 295 294 293 293 294 295 294 293 290 288 286 285 285
151 144 140 135 128 125 126 122 118 120 111 107 105 103 110 118 116 112 105 100 95 90 86 79 66 39 353 319 305 302 303 302 301 300 299 298 298 297 296 295 296 296 299 301 302 301 299 297 296 294 293 292 291 289
143 139 139 138 136 129 128 124 111 109 106 104 101 101 107 105 100 97 98 94 81 58 31 7 346 328 314 308 305 301 301 303 302 301 300 300 299 300 302 304 305 307 308 307 305 302 299 296 294 294 292 289 287 284
141 143 143 146 147 139 130 123 116 121 132 120 116 108 100 90 85 83 76 49 21 351 338 332 326 319 313 314 316 315 313 311 309 308 308 307 307 308 308 308 308 308 307 305 303 300 299 298 297 295 291 288 285 282
147 148 147 151 153 149 142 129 124 127 120 117 111 96 79 69 54 34 13 355 349 348 347 343 338 333 329 325 322 319 316 314 311 309 310 309 309 309 308 308 308 307 307 305 303 303 304 303 301 299 296 292 288 284
151 149 149 149 151 152 155 147 123 116 120 112 88 62 36 17 5 359 351 348 348 346 341 336 333 331 327 324 321 317 314 313 312 312 312 311 310 310 309 309 309 307 305 303 304 305 306 306 305 303 302 299 297 293
147 149 151 155 160 154 140 126 120 124 117 78 22 2 357 354 351 345 343 341 340 337 335 330 328 326 324 321 318 316 315 315 314 313 313 312 311 311 311 310 309 307 303 301 300 297 298 301 305 306 304 304 304 303
137 139 141 139 133 130 130 147 188 281 315 331 341 346 348 341 339 340 338 335 335 331 327 325 324 322 320 317 315 315 316 315 315 315 314 314 313 313 311 311 309 305 296 298 296 292 291 293 296 298 301 300 304 307
151 149 150 152 153 165 213 276 305 313 317 323 324 326 329 330 333 335 333 329 325 322 322 320 319 319 318 318 318 318 318 317 316 316 315 314 313 313 312 311 306 298 290 284 284 285 287 290 293 296 299 299 301 304
168 178 191 207 239 270 288 298 302 305 306 310 314 317 319 322 326 327 323 320 318 319 319 320 320 320 321 320 319 318 317 317 317 316 316 315 315 315 313 310 304 296 289 285 283 284 286 289 291 294 297 300 303 304
217 227 237 252 266 279 285 288 293 298 303 305 308 310 312 318 321 320 317 317 317 318 319 320 320 321 320 320 318 318 318 318 318 317 315 315 315 314 312 310 307 303 300 298 296 293 292 292 293 295 297 300 300 302
247 254 258 265 271 274 279 285 288 293 298 301 302 306 311 315 314 315 315 315 316 318 319 320 321 320 320 318 318 319 319 318 317 317 317 316 315 314 313 312 311 309 307 305 304 302 300 300 299 299 300 301 302 304